Location: C�mpuri de-Sus
(45.9500°N, 22.5500°E)
Time: 04:01:17
(UTC+00:00)

Cosmos 2251 Rocket - Pass Details

Date: 24 October 2021
Orbit: 765 x 791 km, 74.0° (Epoch: 04 December)

Event Time Altitude Azimuth Distance (km) Brightness Sun altitude
Rises 16:29:42 0° 343° (NNW) 3,252 6.9 -11.3°
Reaches altitude 10° 16:32:14 10° 350° (N) 2,319 6.1 -11.7°
Maximum altitude 16:37:13 42° 61° (ENE) 1,087 3.9 -12.6°
Drops below altitude 10° 16:42:09 10° 133° (SE) 2,299 5.6 -13.5°
Enters shadow 16:42:56 - 135° (SE) 2,583 5.8 -13.6°
